Weather History for Cody, WY

Change the Weather History Date:

Thursday, August 8, 2013

  Actual Average Record
Temperature  
Mean Temperature 67 °F -  
Max Temperature 77 °F 83 °F 97 °F (1921)
Min Temperature 57 °F 54 °F 37 °F (1917)
Cooling Degree Days 2    
Growing Degree Days 17 (Base 50)    
Moisture  
Dew Point 44 °F    
Average Humidity 43    
Maximum Humidity 63    
Minimum Humidity 32    
Precipitation  
Precipitation 0.00 in - - ()
Sea Level Pressure  
Sea Level Pressure 30.11 in    
Wind  
Wind Speed 6 mph (West)    
Max Wind Speed 12 mph    
Max Gust Speed 17 mph    
Visibility 10 miles    
Events      
Averages and records for this station are not official NWS values.
T = Trace of Precipitation, MM = Missing Value Source: NWS Daily Summary

Daily Weather History Graph

Daily Weather History Graph

Search for Another Location

Airport:

Trip Planner

Search our weather history database for the weather conditions in past years. The results will help you decide how hot, cold, wet, or windy it might be!

Date:

Astronomy

Aug. 08, 2013 Rise Set
Actual Time 6:11 AM MDT 8:31 PM MDT
Civil Twilight 5:38 AM MDT 9:03 PM MDT
Nautical Twilight 4:58 AM MDT 9:43 PM MDT
Astronomical Twilight 4:13 AM MDT 10:28 PM MDT
Moon 8:08 AM MDT (8/8) 9:03 PM MDT (8/8)
Length of Visible Light 15h 25m
Length of Day
14h 20m
Waxing Crescent, 3% of the Moon is Illuminated
Aug 8
Waxing Crescent
Aug 14
First Quarter
Aug 20
Full
Aug 28
Last Quarter
Sep 5
New

Hourly Weather History & Observations

Time (MDT) Temp. Dew Point Humidity Pressure Visibility Wind Dir Wind Speed Gust Speed Precip Events Conditions
12:15 AM 64.4 °F 44.6 °F 49% 30.11 in 10.0 mi NNW 8.1 mph - N/A   Clear
12:55 AM 62.6 °F 44.6 °F 52% 30.11 in 10.0 mi NW 4.6 mph - N/A   Clear
1:15 AM 64.4 °F 44.6 °F 49% 30.11 in 10.0 mi NW 5.8 mph - N/A   Clear
1:35 AM 64.4 °F 42.8 °F 45% 30.11 in 10.0 mi NW 4.6 mph - N/A   Clear
1:55 AM 64.4 °F 41.0 °F 42% 30.11 in 10.0 mi NW 6.9 mph - N/A   Clear
2:15 AM 64.4 °F 41.0 °F 42% 30.11 in 10.0 mi Calm Calm - N/A   Clear
2:35 AM 64.4 °F 39.2 °F 40% 30.11 in 10.0 mi NW 5.8 mph - N/A   Clear
2:55 AM 64.4 °F 39.2 °F 40% 30.11 in 10.0 mi SSW 4.6 mph - N/A   Clear
3:15 AM 59.0 °F 39.2 °F 48% 30.11 in 10.0 mi South 4.6 mph - N/A   Clear
3:35 AM 59.0 °F 41.0 °F 51% 30.11 in 10.0 mi South 4.6 mph - N/A   Clear
3:55 AM 59.0 °F 41.0 °F 51% 30.11 in 10.0 mi SSW 6.9 mph - N/A   Clear
4:15 AM 57.2 °F 41.0 °F 55% 30.11 in 10.0 mi South 4.6 mph - N/A   Clear
4:35 AM 57.2 °F 44.6 °F 63% 30.10 in 10.0 mi WSW 5.8 mph - N/A   Clear
5:15 AM 57.2 °F 42.8 °F 59% 30.10 in 10.0 mi WSW 3.5 mph - N/A   Clear
5:35 AM 57.2 °F 42.8 °F 59% 30.11 in 10.0 mi South 5.8 mph - N/A   Clear
5:55 AM 57.2 °F 41.0 °F 55% 30.11 in 10.0 mi South 6.9 mph - N/A   Clear
6:15 AM 57.2 °F 41.0 °F 55% 30.11 in 10.0 mi SW 5.8 mph - N/A   Clear
1:15 PM 77.0 °F 46.4 °F 34% 30.09 in 10.0 mi NNE 10.4 mph - N/A   Clear
1:35 PM 77.0 °F 46.4 °F 34% 30.08 in 10.0 mi North 10.4 mph 16.1 mph N/A   Clear
1:55 PM 75.2 °F 46.4 °F 36% 30.08 in 10.0 mi NNW 6.9 mph - N/A   Clear
2:35 PM 77.0 °F 46.4 °F 34% 30.08 in 10.0 mi NNE 8.1 mph - N/A   Clear
2:55 PM 77.0 °F 46.4 °F 34% 30.08 in 10.0 mi NNE 5.8 mph - N/A   Partly Cloudy
3:15 PM 77.0 °F 46.4 °F 34% 30.07 in 10.0 mi NE 10.4 mph - N/A   Mostly Cloudy
3:55 PM 77.0 °F 46.4 °F 34% 30.08 in 10.0 mi North 9.2 mph - N/A   Clear
4:55 PM 77.0 °F 44.6 °F 32% 30.08 in 10.0 mi NNW 9.2 mph - N/A   Clear
5:15 PM 75.2 °F 46.4 °F 36% 30.09 in 10.0 mi WNW 6.9 mph - N/A   Scattered Clouds
5:35 PM 75.2 °F 44.6 °F 34% 30.09 in 10.0 mi NNW 6.9 mph - N/A   Overcast
6:35 PM 73.4 °F 46.4 °F 38% 30.10 in 10.0 mi NW 6.9 mph - N/A   Clear
6:55 PM 73.4 °F 46.4 °F 38% 30.10 in 10.0 mi Calm Calm - N/A   Clear
7:15 PM 71.6 °F 44.6 °F 38% 30.10 in 10.0 mi SW 11.5 mph - N/A   Scattered Clouds
7:35 PM 71.6 °F 46.4 °F 41% 30.10 in 10.0 mi SW 9.2 mph - N/A   Partly Cloudy
7:56 PM 71.6 °F 44.6 °F 38% 30.10 in 10.0 mi SW 8.1 mph - N/A   Clear
8:15 PM 71.6 °F 44.6 °F 38% 30.10 in 10.0 mi SW 10.4 mph 17.3 mph N/A   Clear
8:35 PM 71.6 °F 44.6 °F 38% 30.11 in 10.0 mi WSW 10.4 mph 17.3 mph N/A   Partly Cloudy
8:55 PM 71.6 °F 44.6 °F 38% 30.11 in 10.0 mi West 9.2 mph - N/A   Partly Cloudy
9:15 PM 71.6 °F 42.8 °F 35% 30.12 in 10.0 mi SW 5.8 mph - N/A   Clear
9:35 PM 71.6 °F 42.8 °F 35% 30.12 in 10.0 mi WSW 8.1 mph - N/A   Clear
9:55 PM 71.6 °F 42.8 °F 35% 30.11 in 10.0 mi WSW 9.2 mph - N/A   Clear
10:15 PM 71.6 °F 42.8 °F 35% 30.12 in 10.0 mi West 8.1 mph - N/A   Clear
10:35 PM 69.8 °F 42.8 °F 38% 30.13 in 10.0 mi SW 3.5 mph - N/A   Clear
10:55 PM 68.0 °F 44.6 °F 43% 30.14 in 10.0 mi NNE 10.4 mph - N/A   Clear
11:15 PM 68.0 °F 46.4 °F 46% 30.15 in 10.0 mi NE 6.9 mph - N/A   Clear
11:35 PM 66.2 °F 48.2 °F 52% 30.16 in 10.0 mi NE 3.5 mph - N/A   Partly Cloudy
11:55 PM 66.2 °F 48.2 °F 52% 30.15 in 10.0 mi NNW 4.6 mph - N/A   Scattered Clouds